Hourly Data Report for October 15, 2013

All times are specified in Local Standard Time (LST). Add 1 hour to adjust for Daylight Saving Time where and when it is observed.

PANGNIRTUNG
NUNAVUT

66°08'36.300" N
65°42'40.500" W
22.60 m
2403049
71826
WXP

Download Data

Hourly Data (October 2013)
Hourly Data Report for October 15, 2013
Temp Definition
°C
Dew Point Temp Definition
°C
Rel Hum Definition
%
Wind Dir Definition
10's deg

Wind Spd Definition
km/h
Visibility Definition
km
Stn Press Definition
kPa
Hmdx Definition


Wind Chill Definition


Weather Definition


TIME
00:00 2.4 1.0 90 11 7   100.67     LegendNANA
01:00 2.3 1.1 92 23 4   100.69     LegendNANA
02:00 2.3 1.1 92 24 4   100.70     LegendNANA
03:00 2.0 1.2 94 19 4   100.73     LegendNANA
04:00 2.0 1.4 96 26 6   100.73     LegendNANA
05:00 2.2 1.4 94 12 6   100.74     LegendNANA
06:00 2.2 1.5 95 12 2   100.76     LegendNANA
07:00 2.1 1.4 95 25 6   100.81     LegendNANA
08:00 1.8 1.4 97 7 4   100.81     LegendNANA
09:00 2.0 1.4 96 28 7   100.80     LegendNANA
10:00 2.2 1.5 95   0   100.82     LegendNANA
11:00 2.8 1.4 90 21 4   100.83     LegendNANA
12:00 3.0 1.2 88 29 2   100.85     LegendNANA
13:00 3.4 1.4 87 22 7   100.84     LegendNANA
14:00 3.9 1.1 82 21 2   100.86     LegendNANA
15:00 3.8 0.3 78 2 4   100.87     LegendNANA
16:00 3.4 -0.5 76 15 7   100.89     LegendNANA
17:00 3.0 -0.6 77 14 6   100.90     LegendNANA
18:00 3.6 -0.5 75 20 7   100.92     LegendNANA
19:00 3.4 -1.5 70 16 4   100.95     LegendNANA
20:00 3.0 -1.7 71 13 7   100.96     LegendNANA
21:00 2.9 -1.6 72 18 4   100.95     LegendNANA
22:00 2.5 -1.3 76 12 4   100.93     LegendNANA
23:00 2.2 -1.1 79 9 6   100.95     LegendNANA

Notes on Data Quality.

Legend

  • E = Estimated
  • M = Missing
  • NA = Not Available
  • ‡ = Partner data that is not subject to review by the National Climate Archives
Date modified: